Location: Houston
(29.7630°N, 95.3630°W)
Time: 15:34:38
(UTC-05:00)

Daily predictions for brighter satellites

Satellite Brightness Start Highest point End
(mag) Time Altitude Azimuth Time Altitude Azimuth Time Altitude Azimuth
OAO 3 Rocket 3.8 20:13:41 10° WNW 20:18:24 52° N 20:23:12 10° E
Cosmos 1862 Rocket 4.4 20:16:39 10° SSE 20:20:33 31° E 20:24:29 10° NNE
SJ-6B 2.8 20:17:59 10° SSE 20:21:55 77° ENE 20:25:58 10° N
Cosmos 2026 Rocket 4.4 20:18:10 10° NNE 20:23:55 40° E 20:29:35 10° SSE
FREGAT/IRIS 2.9 20:21:22 10° S 20:24:22 70° W 20:27:23 10° NNW
CZ-2D R/B 4.4 20:21:38 10° SE 20:24:53 26° ENE 20:28:07 10° NNE
Spot 2 Rocket 4.1 20:21:23 10° SE 20:26:01 37° ENE 20:30:38 10° N
Cosmos 1869 Rocket 4.2 20:27:34 10° NNW 20:31:59 61° W 20:36:20 10° S
Cosmos 1503 Rocket 4.0 20:30:14 10° N 20:35:27 69° ENE 20:40:35 10° SSE
Intercosmos 25 Rocket 3.0 20:32:38 10° S 20:35:44 58° E 20:39:32 10° NNE
Cosmos 220 Rocket 4.1 20:33:01 10° NNW 20:37:29 89° W 20:41:54 10° SSE
Lacrosse 4 Rocket 1.5 20:33:18 10° NNW 20:37:42 87° ENE 20:42:09 10° SSE
ALOS 2.6 20:33:18 10° S 20:37:57 73° WSW 20:42:37 10° NNW
FENGYUN 3A 3.8 20:34:43 10° S 20:40:04 78° WSW 20:45:26 10° NNW
Helios 1B rocket 3.2 20:37:56 10° NE 20:41:33 30° E 20:45:11 10° SSE
Cosmos 1354 Rocket 4.0 20:38:01 10° NNW 20:43:18 85° ENE 20:48:31 10° SSE
Cosmos 2219 Rocket 3.7 20:42:14 11° SE 20:44:49 15° E 20:47:51 10° ENE
Envisat 4.2 20:42:56 13° ESE 20:46:25 25° ENE 20:50:29 10° NNE
SWIFT 4.4 20:45:07 10° S 20:46:34 12° SSE 20:47:42 11° SSE
FengYun 1-2 T 4.4 20:42:18 10° S 20:47:57 80° WSW 20:53:38 10° NNW
Resurs 1-3 3.7 20:43:45 10° SSE 20:48:03 59° ENE 20:52:22 10° N
Cosmos 1315 Rocket 4.5 20:45:51 10° NNW 20:49:32 35° W 20:53:09 10° SSW
USA 186 2.3 20:48:25 18° SE 20:50:01 32° ENE 20:52:42 10° N
Meteor 1-29 3.8 20:50:55 10° NE 20:53:58 29° E 20:56:16 15° SSE
SEDSat Delta rocket 3.4 20:52:32 10° W 20:57:18 79° N 21:01:31 17° E
Cosmos 1933 3.3 20:54:28 10° S 20:58:29 89° E 21:02:31 10° N
Sakura Rocket 2.5 21:01:51 10° W 21:05:26 75° S 21:07:34 25° E
Milstar 3 3.1 20:58:00 10° W 21:07:14 67° SSW 21:11:48 22° ESE
Cosmos 1867 4.1 21:03:07 10° N 21:08:14 41° ENE 21:10:58 24° ESE
Cosmos 397 4.4 21:04:32 10° NNW 21:08:34 85° ENE 21:11:23 21° SSE
Cosmos 2263 Rocket 2.1 21:05:37 10° NNW 21:11:13 85° ENE 21:15:41 16° SSE
NOSS 3-1 (C) 3.4 21:08:52 10° S 21:14:10 46° ESE 21:19:54 10° NE
Cosmos 1862 3.4 21:10:36 10° N 21:14:38 78° W 21:18:19 12° S
Cosmos 2221 Rocket 4.2 21:14:07 29° ESE 21:15:18 34° E 21:19:17 10° NNE
Meteor 1-26 Rocket 4.2 21:11:04 10° S 21:16:40 69° E 21:22:26 10° NNE
Cosmos 1408 4.0 21:13:37 10° NNW 21:17:00 37° W 21:20:21 10° SSW
Tiangong 1 2.4 21:16:39 10° SSW 21:18:05 24° SSW 21:18:05 24° SSW
USA 229 DEB 4.3 21:15:03 10° SW 21:21:43 58° WNW 21:28:31 10° NNE
USA 229 4.3 21:15:09 10° SW 21:21:50 59° WNW 21:28:38 10° NNE
Cosmos 1825 3.8 21:18:28 10° NNW 21:21:56 34° W 21:25:24 10° SSW
Cosmos 1655 Rocket 4.2 21:16:09 10° N 21:22:31 76° W 21:28:47 10° S
Cosmos 2237 4.3 21:20:35 10° SSW 21:26:18 78° WNW 21:32:03 10° NNE
IUS-7 SRM-1 4.4 21:23:03 10° W 21:26:32 48° S 21:31:47 26° ESE
Cosmos 2360 Rocket 3.5 21:21:15 10° SW 21:26:34 42° WNW 21:31:55 10° N
Cosmos 489 Rocket 4.5 21:21:46 10° N 21:28:06 70° ENE 21:31:42 27° SSE
NOSS 3-1 (A) 3.5 21:26:42 10° S 21:32:00 45° ESE 21:37:43 10° NE
Resurs 01 Rocket 3.4 21:30:08 10° SSW 21:34:02 30° W 21:37:58 10° NW
COSMOS 2428 2.7 21:30:22 10° SSW 21:36:02 86° WNW 21:41:46 10° NNE
Helios 1A 3.1 21:35:08 31° S 21:37:05 74° WSW 21:41:21 10° NNW
Cosmos 1939 Rocket 2.7 21:36:47 57° SE 21:37:27 71° ENE 21:41:26 10° N
SJ-11-01 4.1 21:35:53 41° SSE 21:37:29 74° ENE 21:42:08 10° N
Cosmos 1908 Rocket 3.4 21:33:28 10° N 21:37:48 76° E 21:38:53 50° SSE
CZ-4B DEB 2.9 21:38:31 61° N 21:38:31 61° N 21:41:05 10° N
ATLAS 5 CENTAUR R/B 2.4 21:32:08 10° NNW 21:38:25 90° SE 21:41:36 33° SSE
YAOGAN 6 3.6 21:46:02 35° NNE 21:46:02 35° NNE 21:48:30 10° N
Okean 1-7 2.9 21:45:24 60° SSE 21:46:07 76° E 21:50:31 10° N
Cosmos 1777 Rocket 4.3 21:44:30 10° N 21:49:32 45° ENE 21:49:46 45° ENE
Atlas Centaur 2 2.6 21:46:02 10° W 21:52:27 90° NNE 21:55:28 40° E
Cosmos 1782 Rocket 3.7 21:48:23 10° N 21:52:23 59° ENE 21:52:23 59° ENE
Intelsat 5-1 Rocket 3.9 21:50:31 10° WSW 21:50:51 12° SW 21:50:51 12° SW
Sich 1 Rocket 3.8 21:49:26 10° NNW 21:53:55 68° W 21:55:09 45° SSW
Meteor 1-10 Rocket 4.4 21:54:02 51° ESE 21:54:32 53° E 22:00:12 10° NNE
OAO 3 Rocket 3.3 21:57:13 10° WNW 22:02:01 66° SSW 22:02:01 66° SSW
Cosmos 2237 Rocket 3.0 22:08:37 36° NE 22:08:37 36° NE 22:12:11 10° NNE
Meteor 1-25 Rocket 4.0 22:02:18 10° N 22:07:52 75° E 22:08:08 73° ESE
Cosmos 968 Rocket 4.2 22:04:02 10° NNW 22:09:01 48° WSW 22:10:35 37° SSW
Cosmos 1844 Rocket 2.9 22:06:22 10° N 22:11:29 53° NE 22:11:29 53° NE
Meteor 1-20 Rocket 4.1 22:06:46 10° N 22:12:26 73° E 22:12:29 73° E
Okean 2 Rocket 3.7 22:09:20 10° N 22:12:43 50° N 22:12:43 50° N
Cosmos 2333 Rocket 2.1 22:13:47 59° SSW 22:14:58 90° E 22:20:46 10° NNE
CZ-4C R/B 4.1 22:10:00 10° N 22:16:04 27° NE 22:17:07 26° ENE
Cosmos 2278 Rocket 3.8 22:14:06 10° N 22:17:25 22° NE 22:17:25 22° NE
USA 234 3.9 22:17:39 38° ENE 22:18:49 41° NE 22:24:51 10° NNW
Meteor 2-6 Rocket 4.2 22:24:06 85° S 22:24:17 90° E 22:30:17 10° N
Cosmos 2219 Rocket 2.9 22:23:32 14° SW 22:28:11 52° WNW 22:33:40 10° N
SPOT 5 4.0 22:37:06 36° N 22:37:06 36° N 22:39:50 10° N
SeaSat 1 4.3 22:38:34 22° NNE 22:38:34 22° NNE 22:40:53 10° N
ERS-1 Rocket 3.9 22:41:58 43° W 22:41:58 43° W 22:46:17 10° NNW
H-2A R/B 3.6 22:47:19 27° NNE 22:47:19 27° NNE 22:49:39 10° N
NOSS 0 Rocket 4.4 22:44:08 44° WSW 22:45:45 57° WNW 22:51:48 10° NNE
Terra 4.2 23:11:24 17° N 23:11:24 17° N 23:12:30 10° N
ATLAS 2AS CENTAUR R/B 4.0 23:26:52 35° NE 23:26:52 35° NE 23:31:06 10° NNE
SL-16 R/B 4.3 23:35:09 20° N 23:35:09 20° N 23:36:52 10° NNE
Atlas Centaur 2 4.2 23:35:01 10° W 23:38:05 28° W 23:38:05 28° W
